�������l�o���
Date,Time,MP-1(��Sv/h),MP-2(��Sv/h),MP-3(��Sv/h),MP-4(��Sv/h),MP-5(��Sv/h),MP-6(��Sv/h),MP-7(��Sv/h),MP-8(��Sv/h),����,����(m/s),���J
2020/09/20,00:00,0.664,0.939,0.604,1.152,0.832,0.383,0.669,0.630,�쐼,4.3,��
2020/09/20,00:10,0.663,0.939,0.603,1.154,0.832,0.383,0.667,0.631,���쐼,3.4,��
2020/09/20,00:20,0.663,0.939,0.603,1.155,0.831,0.382,0.668,0.631,���쐼,1.7,��
2020/09/20,00:30,0.663,0.939,0.604,1.150,0.831,0.383,0.669,0.631,�쐼,1.7,��
2020/09/20,00:40,0.664,0.939,0.603,1.152,0.832,0.383,0.669,0.631,�쐼,2.6,��
2020/09/20,00:50,0.665,0.937,0.603,1.154,0.830,0.384,0.671,0.632,�쐼,2.2,��
2020/09/20,01:00,0.663,0.940,0.602,1.153,0.832,0.385,0.669,0.629,���쐼,3.5,��
2020/09/20,01:10,0.663,0.938,0.603,1.153,0.830,0.385,0.670,0.632,���쐼,2.0,��
2020/09/20,01:20,0.663,0.939,0.601,1.152,0.833,0.383,0.669,0.629,���쐼,2.5,��
2020/09/20,01:30,0.664,0.938,0.603,1.153,0.834,0.384,0.670,0.632,���쐼,3.8,��
2020/09/20,01:40,0.665,0.938,0.602,1.153,0.830,0.383,0.668,0.630,�쐼,2.8,��
2020/09/20,01:50,0.666,0.940,0.605,1.153,0.833,0.383,0.668,0.631,���쐼,1.7,��
2020/09/20,02:00,0.666,0.939,0.604,1.155,0.829,0.383,0.669,0.632,��,1.7,��
2020/09/20,02:10,0.665,0.941,0.604,1.154,0.832,0.384,0.668,0.632,��,2.3,��
2020/09/20,02:20,0.664,0.940,0.604,1.153,0.831,0.384,0.670,0.631,�k��,1.9,��
2020/09/20,02:30,0.663,0.939,0.603,1.154,0.831,0.385,0.670,0.631,�k,2.3,��
2020/09/20,02:40,0.664,0.940,0.602,1.154,0.831,0.384,0.669,0.632,�k�k��,2.8,��
2020/09/20,02:50,0.665,0.938,0.605,1.152,0.833,0.383,0.670,0.631,�k��,3.8,��
2020/09/20,03:00,0.666,0.938,0.603,1.155,0.831,0.384,0.669,0.631,���k��,4.4,��
2020/09/20,03:10,0.663,0.939,0.602,1.155,0.831,0.384,0.669,0.631,���k��,5.2,��
2020/09/20,03:20,0.664,0.938,0.603,1.154,0.832,0.383,0.671,0.630,��,5.4,��
2020/09/20,03:30,0.664,0.940,0.603,1.152,0.831,0.383,0.669,0.630,��,5.0,��
2020/09/20,03:40,0.666,0.939,0.604,1.156,0.830,0.383,0.671,0.632,���k��,5.5,��
2020/09/20,03:50,0.665,0.939,0.604,1.156,0.832,0.384,0.670,0.633,���k��,6.0,��
2020/09/20,04:00,0.664,0.940,0.603,1.154,0.832,0.384,0.670,0.631,���k��,5.9,��
2020/09/20,04:10,0.664,0.938,0.604,1.152,0.831,0.384,0.669,0.632,���k��,5.4,��
2020/09/20,04:20,0.664,0.940,0.603,1.156,0.830,0.384,0.669,0.631,���k��,4.8,��
2020/09/20,04:30,0.664,0.941,0.604,1.157,0.831,0.385,0.667,0.632,���k��,3.1,��
2020/09/20,04:40,0.666,0.939,0.603,1.156,0.832,0.384,0.670,0.631,���k��,2.3,��
2020/09/20,04:50,0.665,0.938,0.604,1.155,0.831,0.384,0.669,0.631,���k��,2.2,��
2020/09/20,05:00,0.665,0.937,0.604,1.153,0.831,0.384,0.672,0.633,��,2.6,��
2020/09/20,05:10,0.664,0.938,0.604,1.156,0.833,0.383,0.669,0.632,��,3.7,��
2020/09/20,05:20,0.664,0.937,0.604,1.154,0.831,0.384,0.669,0.630,��,2.9,��
2020/09/20,05:30,0.664,0.941,0.603,1.152,0.832,0.383,0.669,0.630,��,2.3,��
2020/09/20,05:40,0.665,0.938,0.603,1.155,0.832,0.383,0.671,0.631,���k��,4.1,��
2020/09/20,05:50,0.662,0.937,0.604,1.155,0.832,0.384,0.669,0.631,�k��,1.9,��
2020/09/20,06:00,0.665,0.938,0.605,1.155,0.833,0.384,0.668,0.631,���k��,2.0,��
2020/09/20,06:10,0.667,0.941,0.603,1.156,0.833,0.384,0.669,0.631,���k��,1.7,��
2020/09/20,06:20,0.664,0.941,0.604,1.155,0.831,0.382,0.668,0.630,�k��,2.6,��
2020/09/20,06:30,0.665,0.942,0.605,1.156,0.832,0.384,0.669,0.631,���k��,2.3,��
2020/09/20,06:40,0.664,0.940,0.603,1.157,0.832,0.384,0.669,0.631,���k��,2.3,��
2020/09/20,06:50,0.666,0.939,0.603,1.158,0.831,0.384,0.669,0.633,��,2.5,��
2020/09/20,07:00,0.665,0.942,0.604,1.155,0.831,0.384,0.669,0.631,��,3.7,��
2020/09/20,07:10,0.666,0.940,0.604,1.154,0.833,0.384,0.669,0.632,��,4.5,�L
2020/09/20,07:20,0.664,0.940,0.604,1.156,0.833,0.383,0.669,0.630,���k��,5.8,�L
2020/09/20,07:30,0.665,0.941,0.604,1.156,0.832,0.382,0.668,0.631,��,5.5,�L
2020/09/20,07:40,0.665,0.942,0.604,1.155,0.833,0.384,0.670,0.633,���k��,5.4,��
2020/09/20,07:50,0.666,0.940,0.604,1.156,0.832,0.384,0.670,0.630,���k��,3.9,��
2020/09/20,08:00,0.666,0.938,0.602,1.157,0.832,0.383,0.670,0.630,���k��,4.1,��
2020/09/20,08:10,0.665,0.940,0.604,1.156,0.831,0.384,0.668,0.632,�k��,3.7,��
2020/09/20,08:20,0.666,0.941,0.605,1.154,0.835,0.383,0.668,0.630,�k��,3.5,��
2020/09/20,08:30,0.665,0.941,0.603,1.155,0.834,0.383,0.671,0.632,�k��,4.5,��
2020/09/20,08:40,0.666,0.941,0.604,1.158,0.833,0.385,0.671,0.631,�k��,4.7,��
2020/09/20,08:50,0.664,0.939,0.603,1.157,0.832,0.384,0.670,0.629,�k��,3.4,��
2020/09/20,09:00,0.665,0.939,0.603,1.156,0.832,0.383,0.669,0.632,�k��,3.8,��
2020/09/20,09:10,0.664,0.937,0.603,1.157,0.831,0.383,0.669,0.630,�k��,3.7,��
2020/09/20,09:20,0.665,0.941,0.603,1.157,0.832,0.382,0.671,0.631,�k��,3.6,��
2020/09/20,09:30,0.663,0.939,0.603,1.155,0.832,0.382,0.669,0.631,�k��,4.0,��
2020/09/20,09:40,0.664,0.938,0.604,1.157,0.832,0.383,0.671,0.630,�k��,3.3,��
2020/09/20,09:50,0.664,0.939,0.602,1.157,0.831,0.384,0.670,0.629,�k��,3.4,��
2020/09/20,10:00,0.663,0.939,0.605,1.156,0.834,0.383,0.670,0.630,�k��,3.2,��
2020/09/20,10:10,0.665,0.941,0.605,1.160,0.830,0.384,0.669,0.630,�k��,2.0,��
2020/09/20,10:20,0.664,0.940,0.604,1.156,0.832,0.383,0.670,0.630,��,1.2,��
2020/09/20,10:30,0.663,0.939,0.605,1.155,0.831,0.383,0.670,0.629,��,0.9,��
2020/09/20,10:40,0.664,0.941,0.604,1.156,0.830,0.383,0.671,0.632,-,CALM,�L
2020/09/20,10:50,0.665,0.939,0.604,1.158,0.830,0.383,0.670,0.629,��,1.5,�L
2020/09/20,11:00,0.664,0.942,0.606,1.154,0.832,0.383,0.671,0.631,���k��,0.9,�L
2020/09/20,11:10,0.666,0.940,0.605,1.157,0.834,0.381,0.670,0.629,���k��,1.5,�L
2020/09/20,11:20,0.665,0.942,0.604,1.155,0.835,0.383,0.670,0.630,��,1.4,�L
2020/09/20,11:30,0.665,0.942,0.606,1.156,0.835,0.383,0.672,0.632,�쐼,0.9,��
2020/09/20,11:40,0.664,0.942,0.605,1.157,0.836,0.383,0.670,0.631,���쐼,0.9,��
2020/09/20,11:50,0.666,0.942,0.604,1.157,0.836,0.385,0.670,0.632,���쐼,0.9,��
2020/09/20,12:00,0.665,0.941,0.604,1.158,0.835,0.383,0.670,0.631,���쓌,1.2,��
2020/09/20,12:10,0.665,0.940,0.605,1.155,0.835,0.383,0.671,0.632,���k��,1.2,��
2020/09/20,12:20,0.664,0.942,0.604,1.156,0.834,0.385,0.668,0.631,���k��,0.9,��
2020/09/20,12:30,0.663,0.942,0.605,1.157,0.834,0.384,0.671,0.630,��,1.9,��
2020/09/20,12:40,0.666,0.942,0.605,1.157,0.833,0.383,0.671,0.631,��,1.5,��
2020/09/20,12:50,0.665,0.941,0.606,1.160,0.834,0.383,0.671,0.630,���k��,2.2,��
2020/09/20,13:00,0.663,0.941,0.604,1.160,0.836,0.385,0.671,0.632,���k��,1.5,��
2020/09/20,13:10,0.663,0.940,0.605,1.157,0.834,0.384,0.670,0.631,��,1.7,��
2020/09/20,13:20,0.665,0.942,0.605,1.159,0.836,0.383,0.669,0.631,��,1.9,��
2020/09/20,13:30,0.664,0.943,0.603,1.159,0.833,0.384,0.671,0.630,���쓌,2.2,��
2020/09/20,13:40,0.663,0.942,0.602,1.161,0.834,0.384,0.671,0.629,��,2.8,��
2020/09/20,13:50,0.663,0.941,0.605,1.158,0.834,0.383,0.670,0.630,��,2.3,��
2020/09/20,14:00,0.663,0.940,0.602,1.159,0.835,0.384,0.671,0.630,���k��,2.6,��
2020/09/20,14:10,0.664,0.941,0.603,1.158,0.834,0.385,0.672,0.629,���k��,3.0,��
2020/09/20,14:20,0.663,0.941,0.604,1.157,0.834,0.384,0.672,0.629,�k��,2.3,�L
2020/09/20,14:30,0.663,0.941,0.604,1.160,0.832,0.384,0.671,0.631,���k��,1.9,�L
2020/09/20,14:40,0.664,0.943,0.604,1.162,0.834,0.384,0.672,0.630,���k��,2.5,��
2020/09/20,14:50,0.664,0.943,0.602,1.157,0.834,0.384,0.671,0.631,���k��,2.5,��
2020/09/20,15:00,0.663,0.942,0.604,1.159,0.836,0.384,0.670,0.629,���k��,2.3,��
2020/09/20,15:10,0.664,0.944,0.604,1.160,0.836,0.383,0.671,0.631,���k��,2.6,��
2020/09/20,15:20,0.662,0.943,0.606,1.161,0.835,0.383,0.671,0.631,�k��,1.9,��
2020/09/20,15:30,0.663,0.944,0.605,1.161,0.834,0.383,0.672,0.631,�k��,2.2,��
2020/09/20,15:40,0.663,0.944,0.605,1.159,0.835,0.384,0.670,0.630,�k��,2.0,��
2020/09/20,15:50,0.661,0.945,0.605,1.160,0.834,0.384,0.671,0.631,�k��,1.5,��
2020/09/20,16:00,0.665,0.945,0.606,1.158,0.834,0.383,0.671,0.631,�k��,1.2,��
2020/09/20,16:10,0.664,0.944,0.605,1.161,0.836,0.383,0.670,0.630,���k��,1.5,��
2020/09/20,16:20,0.662,0.945,0.605,1.158,0.834,0.383,0.669,0.632,�k��,1.7,��
2020/09/20,16:30,0.664,0.946,0.603,1.158,0.835,0.386,0.672,0.631,���k��,1.5,��
2020/09/20,16:40,0.665,0.945,0.603,1.159,0.837,0.385,0.669,0.632,���k��,1.5,��
2020/09/20,16:50,0.662,0.945,0.607,1.161,0.835,0.384,0.672,0.632,�k��,1.5,��
2020/09/20,17:00,0.662,0.945,0.606,1.158,0.836,0.386,0.670,0.632,��,1.5,��
2020/09/20,17:10,0.666,0.948,0.606,1.159,0.837,0.385,0.672,0.632,���쓌,1.5,��
2020/09/20,17:20,0.667,0.948,0.607,1.162,0.835,0.386,0.671,0.633,���쓌,1.4,��
2020/09/20,17:30,0.666,0.947,0.606,1.162,0.838,0.384,0.671,0.633,���k��,1.2,��
2020/09/20,17:40,0.664,0.947,0.608,1.160,0.837,0.385,0.671,0.631,���k��,0.6,��
2020/09/20,17:50,0.664,0.948,0.607,1.161,0.838,0.385,0.672,0.634,�k��,0.6,��
2020/09/20,18:00,0.666,0.948,0.605,1.160,0.837,0.384,0.671,0.633,���k��,0.9,��
2020/09/20,18:10,0.667,0.948,0.607,1.162,0.837,0.384,0.672,0.634,��,0.9,��
2020/09/20,18:20,0.665,0.948,0.607,1.161,0.836,0.384,0.671,0.634,���k��,0.6,��
2020/09/20,18:30,0.666,0.947,0.605,1.161,0.837,0.385,0.672,0.632,�k�k��,1.2,��
2020/09/20,18:40,0.666,0.946,0.607,1.161,0.836,0.386,0.671,0.633,��,0.8,��
2020/09/20,18:50,0.665,0.947,0.607,1.161,0.839,0.386,0.672,0.632,���쐼,1.1,��
2020/09/20,19:00,0.666,0.947,0.607,1.164,0.839,0.386,0.674,0.632,-,CALM,��
2020/09/20,19:10,0.665,0.947,0.607,1.160,0.840,0.386,0.674,0.633,��쐼,0.8,��
2020/09/20,19:20,0.667,0.946,0.606,1.163,0.840,0.385,0.670,0.635,-,CALM,��
2020/09/20,19:30,0.667,0.948,0.607,1.162,0.837,0.385,0.672,0.632,-,CALM,��
2020/09/20,19:40,0.667,0.948,0.608,1.163,0.840,0.387,0.673,0.633,���쓌,0.8,��
2020/09/20,19:50,0.666,0.944,0.608,1.164,0.839,0.386,0.672,0.635,��쓌,0.6,��
2020/09/20,20:00,0.666,0.948,0.607,1.162,0.838,0.385,0.673,0.634,���쓌,0.6,��
2020/09/20,20:10,0.667,0.947,0.608,1.162,0.839,0.385,0.672,0.633,-,CALM,��
2020/09/20,20:20,0.667,0.948,0.607,1.162,0.838,0.385,0.673,0.634,��쐼,0.8,��
2020/09/20,20:30,0.667,0.946,0.609,1.162,0.839,0.386,0.673,0.633,�쓌,2.0,��
2020/09/20,20:40,0.666,0.947,0.607,1.164,0.840,0.383,0.671,0.634,��쓌,0.9,��
2020/09/20,20:50,0.667,0.947,0.607,1.163,0.837,0.386,0.673,0.632,�쐼,1.1,��
2020/09/20,21:00,0.666,0.945,0.609,1.163,0.838,0.384,0.673,0.633,���쐼,1.5,��
2020/09/20,21:10,0.666,0.945,0.608,1.164,0.838,0.385,0.671,0.631,��쐼,1.5,��
2020/09/20,21:20,0.665,0.946,0.607,1.164,0.836,0.386,0.672,0.633,��쓌,1.2,��
2020/09/20,21:30,0.666,0.946,0.606,1.163,0.838,0.387,0.672,0.633,��쐼,1.1,��
2020/09/20,21:40,0.667,0.947,0.608,1.162,0.837,0.384,0.673,0.631,��쐼,1.5,��
2020/09/20,21:50,0.666,0.948,0.609,1.162,0.837,0.386,0.674,0.634,�쐼,1.5,��
2020/09/20,22:00,0.666,0.948,0.607,1.163,0.840,0.386,0.671,0.633,�쐼,0.6,��
2020/09/20,22:10,0.667,0.946,0.608,1.161,0.839,0.387,0.672,0.634,��쓌,0.6,��
2020/09/20,22:20,0.667,0.945,0.608,1.162,0.838,0.386,0.674,0.632,��쓌,0.6,��
2020/09/20,22:30,0.666,0.947,0.607,1.164,0.836,0.386,0.674,0.632,���쓌,0.6,��
2020/09/20,22:40,0.665,0.946,0.607,1.164,0.838,0.386,0.673,0.632,-,CALM,��
2020/09/20,22:50,0.667,0.946,0.606,1.164,0.837,0.387,0.673,0.633,��쓌,0.6,��
2020/09/20,23:00,0.666,0.945,0.608,1.164,0.837,0.386,0.673,0.634,��,1.5,��
2020/09/20,23:10,0.667,0.948,0.607,1.165,0.840,0.385,0.672,0.634,��,1.9,��
2020/09/20,23:20,0.668,0.946,0.607,1.164,0.838,0.386,0.673,0.633,��,0.9,�L
2020/09/20,23:30,0.667,0.946,0.607,1.164,0.837,0.386,0.673,0.635,��,0.6,��
2020/09/20,23:40,0.667,0.944,0.608,1.162,0.838,0.388,0.672,0.633,��쓌,1.5,��
2020/09/20,23:50,0.667,0.949,0.608,1.164,0.839,0.385,0.672,0.635,��쐼,1.2,��
